Date String (YYYY-MM-DD hh:mm:ss) UTC,Instrument flags,Ambient pressure (hPa),Sample flow (lpm),Bypass flow (lpm),Sample temperature (°C),Ambient temperature (°C),ASC tube jacket temperature (°C),LED temperature (°C),Box temperature (°C),Sample RH (%),Span deviation,Mass concentration (μg/m³),Mass concentration (μg/m³),Mass concentration (μg/m³)
DateTimeUTC,F1_M11,P_M11,Q1_M11,Q2_M11,T1_M11,T2_M11,T3_M11,T4_M11,T5_M11,U1_M11,ZSPAN_M11,X0_M11,X2_M11,X1_M11
2022-02-10 04:00:00,,0829.6,5.00,0.00,25.3,24.5,00.0,34.4,27.1,12.9,0000.0,0011.76,0005.01,0004.25
2022-02-10 04:01:00,,0829.5,5.00,0.00,25.3,24.5,00.0,34.3,27.1,13.0,0000.0,0011.14,0004.86,0004.12
2022-02-10 04:02:00,,0829.6,4.99,0.00,25.3,24.5,00.0,34.3,27.1,13.0,0000.0,0010.24,0004.69,0003.99
2022-02-10 04:03:00,,0829.6,5.00,0.00,25.2,24.4,00.0,34.3,27.0,13.0,0000.0,0010.70,0004.51,0003.85
2022-02-10 04:04:00,,0829.8,4.99,0.00,25.2,24.4,00.0,34.3,27.0,13.1,0000.0,0010.58,0004.38,0003.72
2022-02-10 04:05:00,,0829.9,5.01,0.00,25.2,24.4,00.0,34.3,27.0,13.1,0000.0,0010.35,0004.24,0003.59
2022-02-10 04:06:00,,0830.0,4.99,0.00,25.2,24.4,00.0,34.3,27.0,13.2,0000.0,0010.03,0004.08,0003.48
2022-02-10 04:07:00,,0830.0,5.00,0.00,25.2,24.4,00.0,34.3,27.0,13.3,0000.0,0009.14,0003.97,0003.39
2022-02-10 04:08:00,,0830.1,5.01,0.00,25.2,24.4,00.0,34.3,27.0,13.3,0000.0,0009.43,0003.87,0003.34
2022-02-10 04:09:00,,0830.0,4.98,0.00,25.2,24.4,00.0,34.2,27.0,13.3,0000.0,0009.29,0003.81,0003.31
2022-02-10 04:10:00,,0830.1,5.01,0.00,25.2,24.4,00.0,34.2,27.0,13.4,0000.0,0009.16,0003.80,0003.30
2022-02-10 04:11:00,,0830.1,4.99,0.00,25.2,24.4,00.0,34.2,26.9,13.5,0000.0,0009.04,0003.76,0003.29
2022-02-10 04:12:00,,0830.1,5.02,0.00,25.2,24.4,00.0,34.2,26.9,13.6,0000.0,0008.67,0003.73,0003.28
2022-02-10 04:13:00,,0830.1,4.99,0.00,25.1,24.4,00.0,34.2,26.9,13.5,0000.0,0009.14,0003.72,0003.26
2022-02-10 04:14:00,,0830.2,5.01,0.00,25.1,24.4,00.0,34.2,26.9,13.6,0000.0,0009.34,0003.74,0003.24
2022-02-10 04:15:00,,0830.2,4.98,0.00,25.1,24.3,00.0,34.2,26.9,13.6,0000.0,0009.24,0003.73,0003.23
2022-02-10 04:16:00,,0830.3,5.01,0.00,25.1,24.3,00.0,34.2,26.9,13.6,0000.0,0009.34,0003.74,0003.23
2022-02-10 04:17:00,,0830.3,4.98,0.00,25.1,24.3,00.0,34.2,26.8,13.7,0000.0,0010.30,0003.77,0003.23
2022-02-10 04:18:00,,0830.3,5.01,0.00,25.1,24.3,00.0,34.1,26.8,13.7,0000.0,0011.26,0003.76,0003.23
2022-02-10 04:19:00,,0830.2,5.00,0.00,25.0,24.3,00.0,34.1,26.8,13.8,0000.0,0011.61,0003.79,0003.23
2022-02-10 04:20:00,,0830.2,5.00,0.00,25.0,24.3,00.0,34.1,26.8,13.9,0000.0,0011.74,0003.83,0003.21
2022-02-10 04:21:00,,0830.2,5.00,0.00,25.0,24.2,00.0,34.1,26.7,13.9,0000.0,0012.47,0003.87,0003.20
2022-02-10 04:22:00,,0830.3,4.99,0.00,25.0,24.2,00.0,34.1,26.7,14.0,0000.0,0012.49,0003.85,0003.17
2022-02-10 04:23:00,,0830.3,5.01,0.00,25.0,24.2,00.0,34.1,26.7,14.0,0000.0,0012.39,0003.81,0003.15
2022-02-10 04:24:00,,0830.4,5.00,0.00,24.9,24.2,00.0,34.1,26.7,14.1,0000.0,0012.22,0003.80,0003.13
2022-02-10 04:25:00,,0830.4,5.00,0.00,24.9,24.2,00.0,34.1,26.7,14.1,0000.0,0011.54,0003.72,0003.07
2022-02-10 04:26:00,,0830.4,5.01,0.00,24.9,24.1,00.0,34.0,26.6,14.2,0000.0,0011.38,0003.65,0002.98
2022-02-10 04:27:00,,0830.4,4.99,0.00,24.9,24.1,00.0,34.0,26.6,14.2,0000.0,0011.29,0003.56,0002.88
2022-02-10 04:28:00,,0830.4,5.00,0.00,24.9,24.1,00.0,34.0,26.6,14.3,0000.0,0010.62,0003.46,0002.79
2022-02-10 04:29:00,,0830.4,5.00,0.00,24.9,24.1,00.0,34.0,26.6,14.3,0000.0,0009.80,0003.39,0002.69
2022-02-10 04:30:00,,0830.6,5.00,0.00,24.8,24.1,00.0,34.0,26.6,14.3,0000.0,0008.87,0003.30,0002.61
2022-02-10 04:31:00,,0830.5,5.01,0.00,24.8,24.1,00.0,34.0,26.6,14.3,0000.0,0009.11,0003.26,0002.56
2022-02-10 04:32:00,,0830.6,4.98,0.00,24.8,24.1,00.0,33.9,26.6,14.4,0000.0,0009.45,0003.25,0002.51
2022-02-10 04:33:00,,0830.6,5.00,0.00,24.8,24.1,00.0,33.9,26.7,14.3,0000.0,0010.40,0003.26,0002.49
2022-02-10 04:34:00,,0830.6,5.00,0.00,24.9,24.1,00.0,33.9,26.7,14.3,0000.0,0010.54,0003.27,0002.45
2022-02-10 04:35:00,,0830.6,5.00,0.00,24.9,24.1,00.0,33.9,26.7,14.3,0000.0,0010.14,0003.23,0002.42
2022-02-10 04:36:00,,0830.6,5.00,0.00,24.9,24.1,00.0,33.9,26.7,14.3,0000.0,0010.03,0003.22,0002.40
2022-02-10 04:37:00,,0830.7,4.98,0.00,24.9,24.1,00.0,33.9,26.7,14.3,0000.0,0010.33,0003.24,0002.39
2022-02-10 04:38:00,,0830.6,5.01,0.00,24.9,24.2,00.0,33.9,26.7,14.3,0000.0,0010.52,0003.22,0002.38
2022-02-10 04:39:00,,0830.7,4.98,0.00,24.9,24.2,00.0,33.9,26.7,14.3,0000.0,0010.16,0003.24,0002.37
2022-02-10 04:40:00,,0830.7,5.00,0.00,24.9,24.2,00.0,33.9,26.7,14.3,0000.0,0009.90,0003.28,0002.37
2022-02-10 04:41:00,,0830.7,4.99,0.00,24.9,24.2,00.0,33.9,26.7,14.3,0000.0,0010.20,0003.31,0002.37
2022-02-10 04:42:00,,0830.7,5.01,0.00,24.9,24.1,00.0,33.9,26.7,14.4,0000.0,0009.79,0003.28,0002.35
2022-02-10 04:43:00,,0830.6,5.00,0.00,24.9,24.1,00.0,33.9,26.7,14.3,0000.0,0008.78,0003.23,0002.34
2022-02-10 04:44:00,,0830.6,4.99,0.00,24.9,24.1,00.0,33.9,26.7,14.3,0000.0,0007.99,0003.21,0002.34
2022-02-10 04:45:00,,0830.6,5.01,0.00,24.9,24.1,00.0,33.9,26.7,14.3,0000.0,0008.18,0003.19,0002.35
2022-02-10 04:46:00,,0830.6,4.99,0.00,24.9,24.1,00.0,33.9,26.7,14.3,0000.0,0008.28,0003.21,0002.34
2022-02-10 04:47:00,,0830.5,5.01,0.00,24.9,24.1,00.0,33.9,26.7,14.4,0000.0,0008.55,0003.24,0002.34
2022-02-10 04:48:00,,0830.4,4.99,0.00,24.9,24.1,00.0,33.9,26.7,14.4,0000.0,0008.21,0003.22,0002.34
2022-02-10 04:49:00,,0830.4,5.01,0.00,24.8,24.1,00.0,33.9,26.7,14.4,0000.0,0007.88,0003.23,0002.35
2022-02-10 04:50:00,,0830.4,4.99,0.00,24.8,24.1,00.0,33.9,26.7,14.4,0000.0,0007.75,0003.24,0002.38
2022-02-10 04:51:00,,0830.4,5.01,0.00,24.8,24.1,00.0,33.8,26.7,14.4,0000.0,0008.04,0003.23,0002.40
2022-02-10 04:52:00,,0830.5,5.01,0.00,24.8,24.1,00.0,33.8,26.7,14.4,0000.0,0007.89,0003.25,0002.42
2022-02-10 04:53:00,,0830.6,4.98,0.00,24.8,24.1,00.0,33.8,26.7,14.3,0000.0,0007.93,0003.30,0002.47
2022-02-10 04:54:00,,0830.5,5.01,0.00,24.8,24.1,00.0,33.8,26.7,14.3,0000.0,0007.91,0003.30,0002.49
2022-02-10 04:55:00,,0830.6,4.98,0.00,24.9,24.1,00.0,33.8,26.7,14.3,0000.0,0007.99,0003.31,0002.51
2022-02-10 04:56:00,,0830.5,5.02,0.00,24.9,24.1,00.0,33.8,26.7,14.4,0000.0,0007.74,0003.33,0002.50
2022-02-10 04:57:00,,0830.5,4.99,0.00,24.8,24.1,00.0,33.8,26.7,14.5,0000.0,0007.79,0003.32,0002.49
2022-02-10 04:58:00,,0830.5,5.00,0.00,24.8,24.1,00.0,33.8,26.7,14.4,0000.0,0008.15,0003.30,0002.48
2022-02-10 04:59:00,,0830.5,4.99,0.00,24.8,24.1,00.0,33.8,26.6,14.5,0000.0,0008.11,0003.31,0002.48
